When you browse on this site, cookies collect data to enhance your experience and personalize the content and advertising you see.
Visit our Privacy Policy to learn more. By continuing to use the site, you agree to this use of cookies and data.
  • In Hungary
  • List of Countries
  • For 7 days
  • Water Temperature
  • Satellite Maps
  • Weather Map
  • News
  • Weather Widgets
  • user-avatar
    Login

    Hourly Weather Aarschot

    Today, 21 January, Monday

    Time Temperature Precipitation Wind Pressure Humidity
    00:00 -1°C° 0 mm 1 mps 763 mmHg 61%
    01:00 -1°C° 0 mm 1 mps 763 mmHg 61%
    02:00 -2°C° 0 mm 0 mps 763 mmHg 60%
    03:00 -2°C° 0 mm 0 mps 763 mmHg 60%
    04:00 -2°C° 0 mm 0 mps 763 mmHg 60%
    05:00 -3°C° 0 mm 0 mps 763 mmHg 60%
    06:00 -3°C° 0 mm 0 mps 764 mmHg 61%
    07:00 -3°C° 0 mm 0 mps 763 mmHg 58%
    08:00 -2°C° 0 mm 0 mps 763 mmHg 56%
    09:00 -2°C° 0 mm 0 mps 763 mmHg 53%
    10:00 -1°C° 0 mm 0 mps 763 mmHg 49%
    11:00 +2°C° 0 mm 1 mps 763 mmHg 45%
    12:00 +2°C° 0 mm 1 mps 763 mmHg 44%
    13:00 +2°C° 0 mm 1 mps 763 mmHg 46%
    14:00 +2°C° 0 mm 1 mps 762 mmHg 48%
    15:00 +2°C° 0 mm 1 mps 762 mmHg 50%
    16:00 +1°C° 0 mm 1 mps 761 mmHg 53%
    17:00 0°C° 0 mm 1 mps 761 mmHg 55%
    18:00 -3°C° 0 mm 2 mps 761 mmHg 58%
    19:00 -3°C° 0 mm 2 mps 760 mmHg 58%
    20:00 -3°C° 0 mm 2 mps 760 mmHg 58%
    21:00 -3°C° 0 mm 2 mps 760 mmHg 57%
    22:00 -4°C° 0 mm 3 mps 759 mmHg 57%
    23:00 -4°C° 0 mm 3 mps 759 mmHg 57%

    Tomorrow, 22 January, Tuesday

    Time Temperature Precipitation Wind Pressure Humidity
    00:00 -4°C° 0 mm 3 mps 758 mmHg 56%
    01:00 -4°C° 0 mm 4 mps 757 mmHg 56%
    02:00 -4°C° 0 mm 4 mps 756 mmHg 55%
    03:00 -4°C° 0 mm 4 mps 755 mmHg 54%
    04:00 -5°C° 0 mm 5 mps 754 mmHg 53%
    05:00 -4°C° 0 mm 5 mps 753 mmHg 52%
    06:00 -4°C° 0 mm 6 mps 752 mmHg 52%
    07:00 -4°C° 0 mm 6 mps 752 mmHg 52%
    08:00 -3°C° 0 mm 6 mps 751 mmHg 52%
    09:00 -3°C° 0 mm 7 mps 750 mmHg 53%
    10:00 -3°C° 0.5 mm 7 mps 750 mmHg 63%
    11:00 -3°C° 0.5 mm 7 mps 749 mmHg 74%
    12:00 -3°C° 0.5 mm 7 mps 749 mmHg 85%
    13:00 -3°C° 0.3 mm 6 mps 748 mmHg 86%
    14:00 -2°C° 0.3 mm 5 mps 748 mmHg 87%
    15:00 -1°C° 0.3 mm 5 mps 748 mmHg 88%
    16:00 -2°C° 0 mm 4 mps 747 mmHg 89%
    17:00 -2°C° 0 mm 4 mps 747 mmHg 91%
    18:00 -1°C° 0 mm 3 mps 747 mmHg 92%
    19:00 -2°C° 0 mm 3 mps 747 mmHg 93%
    20:00 -2°C° 0 mm 3 mps 746 mmHg 94%
    21:00 -3°C° 0 mm 2 mps 746 mmHg 94%
    22:00 -3°C° 0 mm 2 mps 746 mmHg 94%
    23:00 -3°C° 0 mm 2 mps 746 mmHg 95%

    Day after tomorrow, 23 January, Wednesday

    Time Temperature Precipitation Wind Pressure Humidity
    00:00 -3°C° 0 mm 2 mps 746 mmHg 95%
    01:00 -4°C° 0 mm 2 mps 745 mmHg 95%
    02:00 -4°C° 0 mm 2 mps 745 mmHg 94%
    03:00 -4°C° 0 mm 2 mps 745 mmHg 94%
    04:00 -4°C° 0 mm 2 mps 745 mmHg 94%
    05:00 -4°C° 0 mm 2 mps 745 mmHg 93%
    06:00 -4°C° 0 mm 2 mps 745 mmHg 93%
    07:00 -3°C° 0 mm 2 mps 745 mmHg 91%
    08:00 -1°C° 0 mm 1 mps 746 mmHg 90%
    09:00 -1°C° 0 mm 1 mps 746 mmHg 89%
    10:00 -2°C° 0 mm 2 mps 747 mmHg 86%
    11:00 -1°C° 0 mm 2 mps 747 mmHg 84%
    12:00 +1°C° 0 mm 2 mps 747 mmHg 81%
    13:00 +1°C° 0 mm 2 mps 748 mmHg 83%
    14:00 +1°C° 0 mm 2 mps 748 mmHg 84%
    15:00 +1°C° 0 mm 2 mps 749 mmHg 86%
    16:00 -1°C° 0 mm 2 mps 749 mmHg 89%
    17:00 -2°C° 0 mm 2 mps 750 mmHg 92%
    18:00 -2°C° 0 mm 2 mps 751 mmHg 95%
    19:00 -2°C° 0 mm 2 mps 751 mmHg 94%
    20:00 -2°C° 0 mm 2 mps 752 mmHg 94%
    21:00 -2°C° 0 mm 2 mps 753 mmHg 94%
    22:00 -2°C° 0 mm 2 mps 753 mmHg 93%
    23:00 -2°C° 0 mm 2 mps 754 mmHg 92%

    24 January, Thursday

    Time Temperature Precipitation Wind Pressure Humidity
    00:00 -2°C° 0 mm 2 mps 754 mmHg 91%
    01:00 -2°C° 0 mm 2 mps 755 mmHg 91%
    02:00 -2°C° 0 mm 2 mps 755 mmHg 90%
    03:00 -2°C° 0 mm 2 mps 756 mmHg 90%
    04:00 -2°C° 0 mm 2 mps 756 mmHg 90%
    05:00 0°C° 0 mm 1 mps 757 mmHg 91%
    06:00 -1°C° 0 mm 1 mps 757 mmHg 91%
    07:00 0°C° 0 mm 1 mps 758 mmHg 90%
    08:00 0°C° 0 mm 1 mps 758 mmHg 90%
    09:00 0°C° 0 mm 1 mps 758 mmHg 89%
    10:00 +1°C° 0 mm 1 mps 758 mmHg 86%
    11:00 +2°C° 0 mm 1 mps 759 mmHg 84%
    12:00 +3°C° 0 mm 1 mps 759 mmHg 81%
    13:00 +3°C° 0 mm 1 mps 759 mmHg 83%
    14:00 +2°C° 0 mm 1 mps 759 mmHg 86%
    15:00 +2°C° 0 mm 1 mps 759 mmHg 89%
    16:00 +2°C° 0 mm 1 mps 759 mmHg 90%
    17:00 -1°C° 0 mm 2 mps 759 mmHg 91%
    18:00 -2°C° 0 mm 2 mps 760 mmHg 92%
    19:00 -2°C° 0 mm 2 mps 760 mmHg 92%
    20:00 -2°C° 0 mm 2 mps 760 mmHg 92%
    21:00 -2°C° 0 mm 3 mps 760 mmHg 92%
    22:00 -1°C° 0 mm 3 mps 760 mmHg 90%
    23:00 -1°C° 0 mm 3 mps 760 mmHg 88%

    25 January, Friday

    Time Temperature Precipitation Wind Pressure Humidity
    00:00 -2°C° 0 mm 4 mps 759 mmHg 86%
    01:00 -1°C° 0.1 mm 4 mps 759 mmHg 87%
    02:00 -1°C° 0.1 mm 5 mps 759 mmHg 87%
    03:00 -1°C° 0.1 mm 5 mps 758 mmHg 87%
    04:00 -1°C° 0.5 mm 5 mps 758 mmHg 88%
    05:00 -1°C° 0.5 mm 5 mps 757 mmHg 89%
    06:00 -2°C° 0.5 mm 6 mps 757 mmHg 90%
    07:00 -1°C° 0.5 mm 5 mps 757 mmHg 91%
    08:00 0°C° 0.5 mm 5 mps 757 mmHg 92%
    09:00 0°C° 0.5 mm 5 mps 757 mmHg 93%
    10:00 0°C° 0.2 mm 5 mps 757 mmHg 94%
    11:00 0°C° 0.2 mm 5 mps 757 mmHg 95%
    12:00 +1°C° 0.2 mm 5 mps 757 mmHg 96%
    13:00 +1°C° 0.1 mm 4 mps 756 mmHg 96%
    14:00 +3°C° 0.1 mm 4 mps 756 mmHg 97%
    15:00 +3°C° 0.1 mm 4 mps 756 mmHg 97%
    16:00 +3°C° 0.1 mm 4 mps 756 mmHg 97%
    17:00 +3°C° 0.1 mm 4 mps 756 mmHg 97%
    18:00 +3°C° 0.1 mm 4 mps 756 mmHg 97%
    19:00 +3°C° 0 mm 4 mps 756 mmHg 97%
    20:00 +3°C° 0 mm 4 mps 756 mmHg 96%
    21:00 +3°C° 0 mm 4 mps 756 mmHg 96%
    22:00 +2°C° 0.1 mm 5 mps 755 mmHg 95%
    23:00 +2°C° 0.1 mm 5 mps 755 mmHg 95%

    26 January, Saturday

    Time Temperature Precipitation Wind Pressure Humidity
    00:00 +3°C° 0.1 mm 5 mps 755 mmHg 95%
    01:00 +3°C° 0.3 mm 6 mps 754 mmHg 94%
    02:00 +3°C° 0.3 mm 6 mps 753 mmHg 94%
    03:00 +4°C° 0.3 mm 6 mps 753 mmHg 94%
    04:00 +4°C° 0.2 mm 6 mps 752 mmHg 94%
    05:00 +4°C° 0.2 mm 6 mps 752 mmHg 94%
    06:00 +5°C° 0.2 mm 6 mps 751 mmHg 94%
    07:00 +5°C° 0.8 mm 7 mps 751 mmHg 93%
    08:00 +5°C° 0.8 mm 7 mps 750 mmHg 92%
    09:00 +5°C° 0.8 mm 8 mps 749 mmHg 91%
    10:00 +5°C° 0.4 mm 8 mps 749 mmHg 90%
    11:00 +6°C° 0.4 mm 9 mps 748 mmHg 88%
    12:00 +6°C° 0.4 mm 9 mps 747 mmHg 86%
    13:00 +6°C° 1.2 mm 9 mps 747 mmHg 88%
    14:00 +6°C° 1.2 mm 8 mps 746 mmHg 89%
    15:00 +6°C° 1.2 mm 7 mps 746 mmHg 90%
    16:00 +5°C° 1.7 mm 7 mps 746 mmHg 89%
    17:00 +3°C° 1.7 mm 6 mps 746 mmHg 88%
    18:00 +2°C° 1.7 mm 5 mps 746 mmHg 88%
    19:00 +3°C° 0.6 mm 4 mps 746 mmHg 86%
    20:00 +3°C° 0.6 mm 4 mps 747 mmHg 84%
    21:00 +3°C° 0.6 mm 3 mps 747 mmHg 83%
    22:00 +2°C° 0 mm 3 mps 747 mmHg 83%
    23:00 +1°C° 0 mm 4 mps 748 mmHg 83%
    Show more